owner,sensor,date,latitude,longitude,vertical_datum,wind_speed,wind_to_direction,wind_speed_of_gust,qcFlag 
WAVCIS,ioos:station:WAVCIS:CSI03:3,2016-11-01T00:00:00Z,29.4412,-92.0613,10.0,5.647,242.0,,'11111222,11111222,99999999' 
WAVCIS,ioos:station:WAVCIS:CSI03:3,2016-11-01T01:00:00Z,29.4412,-92.0613,10.0,6.015,238.0,,'11111222,11111222,99999999' 
WAVCIS,ioos:station:WAVCIS:CSI03:3,2016-11-01T02:00:00Z,29.4412,-92.0613,10.0,6.468,247.0,,'11111222,11111222,99999999' 
WAVCIS,ioos:station:WAVCIS:CSI03:3,2016-11-01T03:00:00Z,29.4412,-92.0613,10.0,6.599,247.0,,'11111222,11111222,99999999' 
WAVCIS,ioos:station:WAVCIS:CSI03:3,2016-11-01T04:00:00Z,29.4412,-92.0613,10.0,7.01,236.0,,'11111222,11111222,99999999' 
WAVCIS,ioos:station:WAVCIS:CSI03:3,2016-11-01T05:00:00Z,29.4412,-92.0613,10.0,6.774,236.0,,'11111222,11111222,99999999' 
WAVCIS,ioos:station:WAVCIS:CSI03:3,2016-11-01T06:00:00Z,29.4412,-92.0613,10.0,6.066,234.0,,'11111222,11111222,99999999' 
WAVCIS,ioos:station:WAVCIS:CSI03:3,2016-11-01T07:00:00Z,29.4412,-92.0613,10.0,5.433,233.0,,'11111222,11111222,99999999' 
WAVCIS,ioos:station:WAVCIS:CSI03:3,2016-11-01T08:00:00Z,29.4412,-92.0613,10.0,4.793,227.0,,'11111222,11111222,99999999' 
WAVCIS,ioos:station:WAVCIS:CSI03:3,2016-11-01T09:00:00Z,29.4412,-92.0613,10.0,4.987,222.0,,'11111222,11111222,99999999' 
WAVCIS,ioos:station:WAVCIS:CSI03:3,2016-11-01T10:00:00Z,29.4412,-92.0613,10.0,4.632,210.0,,'11111222,11111222,99999999' 
WAVCIS,ioos:station:WAVCIS:CSI03:3,2016-11-01T11:00:00Z,29.4412,-92.0613,10.0,5.43,203.0,,'11111222,11111222,99999999' 
WAVCIS,ioos:station:WAVCIS:CSI03:3,2016-11-01T12:00:00Z,29.4412,-92.0613,10.0,6.68,205.0,,'11111222,11111222,99999999' 
WAVCIS,ioos:station:WAVCIS:CSI03:3,2016-11-01T13:00:00Z,29.4412,-92.0613,10.0,6.411,206.0,,'11111222,11111222,99999999' 
WAVCIS,ioos:station:WAVCIS:CSI03:3,2016-11-01T14:00:00Z,29.4412,-92.0613,10.0,6.881,207.0,,'11111222,11111222,99999999' 
WAVCIS,ioos:station:WAVCIS:CSI03:3,2016-11-01T15:00:00Z,29.4412,-92.0613,10.0,7.22,204.0,,'11111222,11111222,99999999' 
WAVCIS,ioos:station:WAVCIS:CSI03:3,2016-11-01T16:00:00Z,29.4412,-92.0613,10.0,7.08,203.0,,'11111222,11111222,99999999' 
WAVCIS,ioos:station:WAVCIS:CSI03:3,2016-11-01T17:00:00Z,29.4412,-92.0613,10.0,7.1,201.0,,'11111222,11111222,99999999' 
WAVCIS,ioos:station:WAVCIS:CSI03:3,2016-11-01T18:00:00Z,29.4412,-92.0613,10.0,6.916,202.0,,'11111222,11111222,99999999' 
WAVCIS,ioos:station:WAVCIS:CSI03:3,2016-11-01T19:00:00Z,29.4412,-92.0613,10.0,6.551,209.0,,'11111222,11111222,99999999' 
WAVCIS,ioos:station:WAVCIS:CSI03:3,2016-11-01T20:00:00Z,29.4412,-92.0613,10.0,7.98,210.0,,'11111222,11111222,99999999' 
WAVCIS,ioos:station:WAVCIS:CSI03:3,2016-11-01T21:00:00Z,29.4412,-92.0613,10.0,6.561,213.0,,'11111222,11111222,99999999' 
WAVCIS,ioos:station:WAVCIS:CSI03:3,2016-11-01T22:00:00Z,29.4412,-92.0613,10.0,5.642,204.0,,'11111222,11111222,99999999' 
WAVCIS,ioos:station:WAVCIS:CSI03:3,2016-11-01T23:00:00Z,29.4412,-92.0613,10.0,4.997,207.0,,'11111222,11111222,99999999' 
WAVCIS,ioos:station:WAVCIS:CSI03:3,2016-11-02T00:00:00Z,29.4412,-92.0613,10.0,5.31,209.0,,'11111222,11111222,99999999' 
WAVCIS,ioos:station:WAVCIS:CSI03:3,2016-11-02T01:00:00Z,29.4412,-92.0613,10.0,7.42,205.0,,'11111222,11111222,99999999' 
WAVCIS,ioos:station:WAVCIS:CSI03:3,2016-11-02T02:00:00Z,29.4412,-92.0613,10.0,8.21,205.0,,'11111222,11111222,99999999' 
WAVCIS,ioos:station:WAVCIS:CSI03:3,2016-11-02T03:00:00Z,29.4412,-92.0613,10.0,9.24,210.0,,'11111222,11111222,99999999' 
WAVCIS,ioos:station:WAVCIS:CSI03:3,2016-11-02T04:00:00Z,29.4412,-92.0613,10.0,7.84,216.0,,'11111222,11111222,99999999' 
WAVCIS,ioos:station:WAVCIS:CSI03:3,2016-11-02T05:00:00Z,29.4412,-92.0613,10.0,9.27,222.0,,'11111222,11111222,99999999' 
WAVCIS,ioos:station:WAVCIS:CSI03:3,2016-11-02T06:00:00Z,29.4412,-92.0613,10.0,8.35,226.0,,'11111222,11111222,99999999' 
WAVCIS,ioos:station:WAVCIS:CSI03:3,2016-11-02T07:00:00Z,29.4412,-92.0613,10.0,8.47,230.0,,'11111222,11111222,99999999' 
WAVCIS,ioos:station:WAVCIS:CSI03:3,2016-11-02T08:00:00Z,29.4412,-92.0613,10.0,6.098,228.0,,'11111222,11111222,99999999' 
WAVCIS,ioos:station:WAVCIS:CSI03:3,2016-11-02T09:00:00Z,29.4412,-92.0613,10.0,5.876,226.0,,'11111222,11111222,99999999' 
WAVCIS,ioos:station:WAVCIS:CSI03:3,2016-11-02T10:00:00Z,29.4412,-92.0613,10.0,4.976,213.0,,'11111222,11111222,99999999' 
WAVCIS,ioos:station:WAVCIS:CSI03:3,2016-11-02T11:00:00Z,29.4412,-92.0613,10.0,5.431,188.0,,'11111222,11111222,99999999' 
WAVCIS,ioos:station:WAVCIS:CSI03:3,2016-11-02T12:00:00Z,29.4412,-92.0613,10.0,5.71,175.0,,'11111222,11111222,99999999' 
WAVCIS,ioos:station:WAVCIS:CSI03:3,2016-11-02T13:00:00Z,29.4412,-92.0613,10.0,6.994,191.0,,'11111222,11111222,99999999' 
WAVCIS,ioos:station:WAVCIS:CSI03:3,2016-11-02T14:00:00Z,29.4412,-92.0613,10.0,8.09,199.0,,'11111222,11111222,99999999' 
WAVCIS,ioos:station:WAVCIS:CSI03:3,2016-11-02T15:00:00Z,29.4412,-92.0613,10.0,7.17,205.0,,'11111222,11111222,99999999' 
WAVCIS,ioos:station:WAVCIS:CSI03:3,2016-11-02T16:00:00Z,29.4412,-92.0613,10.0,7.21,211.0,,'11111222,11111222,99999999' 
WAVCIS,ioos:station:WAVCIS:CSI03:3,2016-11-02T17:00:00Z,29.4412,-92.0613,10.0,6.958,215.0,,'11111222,11111222,99999999' 
WAVCIS,ioos:station:WAVCIS:CSI03:3,2016-11-02T18:00:00Z,29.4412,-92.0613,10.0,7.37,218.0,,'11111222,11111222,99999999' 
WAVCIS,ioos:station:WAVCIS:CSI03:3,2016-11-02T19:00:00Z,29.4412,-92.0613,10.0,6.941,210.0,,'11111222,11111222,99999999' 
WAVCIS,ioos:station:WAVCIS:CSI03:3,2016-11-02T20:00:00Z,29.4412,-92.0613,10.0,6.374,208.0,,'11111222,11111222,99999999' 
WAVCIS,ioos:station:WAVCIS:CSI03:3,2016-11-02T21:00:00Z,29.4412,-92.0613,10.0,7.08,211.0,,'11111222,11111222,99999999' 
WAVCIS,ioos:station:WAVCIS:CSI03:3,2016-11-02T22:00:00Z,29.4412,-92.0613,10.0,7.05,220.0,,'11111222,11111222,99999999' 
WAVCIS,ioos:station:WAVCIS:CSI03:3,2016-11-02T23:00:00Z,29.4412,-92.0613,10.0,6.687,213.0,,'11111222,11111222,99999999' 
WAVCIS,ioos:station:WAVCIS:CSI03:3,2016-11-03T00:00:00Z,29.4412,-92.0613,10.0,5.855,219.0,,'11111222,11111222,99999999' 
WAVCIS,ioos:station:WAVCIS:CSI03:3,2016-11-03T01:00:00Z,29.4412,-92.0613,10.0,6.135,220.0,,'11111222,11111222,99999999' 
WAVCIS,ioos:station:WAVCIS:CSI03:3,2016-11-03T02:00:00Z,29.4412,-92.0613,10.0,6.318,207.0,,'11111222,11111222,99999999' 
WAVCIS,ioos:station:WAVCIS:CSI03:3,2016-11-03T03:00:00Z,29.4412,-92.0613,10.0,6.066,197.0,,'11111222,11111222,99999999' 
WAVCIS,ioos:station:WAVCIS:CSI03:3,2016-11-03T04:00:00Z,29.4412,-92.0613,10.0,5.787,196.0,,'11111222,11111222,99999999' 
WAVCIS,ioos:station:WAVCIS:CSI03:3,2016-11-03T05:00:00Z,29.4412,-92.0613,10.0,6.529,201.0,,'11111222,11111222,99999999' 
WAVCIS,ioos:station:WAVCIS:CSI03:3,2016-11-03T06:00:00Z,29.4412,-92.0613,10.0,7.33,207.0,,'11111222,11111222,99999999' 
WAVCIS,ioos:station:WAVCIS:CSI03:3,2016-11-03T07:00:00Z,29.4412,-92.0613,10.0,6.265,209.0,,'11111222,11111222,99999999' 
WAVCIS,ioos:station:WAVCIS:CSI03:3,2016-11-03T08:00:00Z,29.4412,-92.0613,10.0,6.094,202.0,,'11111222,11111222,99999999' 
WAVCIS,ioos:station:WAVCIS:CSI03:3,2016-11-03T09:00:00Z,29.4412,-92.0613,10.0,5.989,200.0,,'11111222,11111222,99999999' 
WAVCIS,ioos:station:WAVCIS:CSI03:3,2016-11-03T10:00:00Z,29.4412,-92.0613,10.0,6.561,185.0,,'11111222,11111222,99999999' 
WAVCIS,ioos:station:WAVCIS:CSI03:3,2016-11-03T11:00:00Z,29.4412,-92.0613,10.0,6.037,186.0,,'11111222,11111222,99999999' 
WAVCIS,ioos:station:WAVCIS:CSI03:3,2016-11-03T12:00:00Z,29.4412,-92.0613,10.0,6.122,172.0,,'11111222,11111222,99999999' 
WAVCIS,ioos:station:WAVCIS:CSI03:3,2016-11-03T13:00:00Z,29.4412,-92.0613,10.0,6.697,171.0,,'11111222,11111222,99999999' 
WAVCIS,ioos:station:WAVCIS:CSI03:3,2016-11-03T14:00:00Z,29.4412,-92.0613,10.0,6.418,187.0,,'11111222,11111222,99999999' 
WAVCIS,ioos:station:WAVCIS:CSI03:3,2016-11-03T15:00:00Z,29.4412,-92.0613,10.0,6.74,196.0,,'11111222,11111222,99999999' 
WAVCIS,ioos:station:WAVCIS:CSI03:3,2016-11-03T16:00:00Z,29.4412,-92.0613,10.0,6.648,196.0,,'11111222,11111222,99999999' 
WAVCIS,ioos:station:WAVCIS:CSI03:3,2016-11-03T17:00:00Z,29.4412,-92.0613,10.0,6.096,193.0,,'11111222,11111222,99999999' 
WAVCIS,ioos:station:WAVCIS:CSI03:3,2016-11-03T18:00:00Z,29.4412,-92.0613,10.0,6.422,198.0,,'11111222,11111222,99999999' 
WAVCIS,ioos:station:WAVCIS:CSI03:3,2016-11-03T19:00:00Z,29.4412,-92.0613,10.0,4.714,190.0,,'11111222,11111222,99999999' 
WAVCIS,ioos:station:WAVCIS:CSI03:3,2016-11-03T20:00:00Z,29.4412,-92.0613,10.0,3.934,193.0,,'11111222,11111222,99999999' 
WAVCIS,ioos:station:WAVCIS:CSI03:3,2016-11-03T21:00:00Z,29.4412,-92.0613,10.0,3.208,201.0,,'11111222,11111222,99999999' 
WAVCIS,ioos:station:WAVCIS:CSI03:3,2016-11-03T22:00:00Z,29.4412,-92.0613,10.0,2.608,203.0,,'11111222,11111222,99999999' 
WAVCIS,ioos:station:WAVCIS:CSI03:3,2016-11-03T23:00:00Z,29.4412,-92.0613,10.0,2.39,221.0,,'11111222,11111222,99999999' 
WAVCIS,ioos:station:WAVCIS:CSI03:3,2016-11-04T00:00:00Z,29.4412,-92.0613,10.0,2.373,227.0,,'11111222,11111222,99999999' 
WAVCIS,ioos:station:WAVCIS:CSI03:3,2016-11-04T01:00:00Z,29.4412,-92.0613,10.0,1.085,226.0,,'11111222,11111222,99999999' 
WAVCIS,ioos:station:WAVCIS:CSI03:3,2016-11-04T02:00:00Z,29.4412,-92.0613,10.0,0.957,221.0,,'11111222,11111222,99999999' 
WAVCIS,ioos:station:WAVCIS:CSI03:3,2016-11-04T03:00:00Z,29.4412,-92.0613,10.0,0.98,250.0,,'11111222,11111222,99999999' 
WAVCIS,ioos:station:WAVCIS:CSI03:3,2016-11-04T04:00:00Z,29.4412,-92.0613,10.0,0.082,240.0,,'11111222,11111222,99999999' 
WAVCIS,ioos:station:WAVCIS:CSI03:3,2016-11-04T05:00:00Z,29.4412,-92.0613,10.0,0.346,232.0,,'11111222,11111222,99999999' 
WAVCIS,ioos:station:WAVCIS:CSI03:3,2016-11-04T06:00:00Z,29.4412,-92.0613,10.0,1.349,232.0,,'11111222,11111222,99999999' 
WAVCIS,ioos:station:WAVCIS:CSI03:3,2016-11-04T07:00:00Z,29.4412,-92.0613,10.0,0.755,232.0,,'11111222,11111222,99999999' 
WAVCIS,ioos:station:WAVCIS:CSI03:3,2016-11-04T08:00:00Z,29.4412,-92.0613,10.0,0.127,232.0,,'11111222,11111222,99999999' 
WAVCIS,ioos:station:WAVCIS:CSI03:3,2016-11-04T09:00:00Z,29.4412,-92.0613,10.0,2.136,113.0,,'11111222,11111222,99999999' 
WAVCIS,ioos:station:WAVCIS:CSI03:3,2016-11-04T10:00:00Z,29.4412,-92.0613,10.0,3.087,105.0,,'11111222,11111222,99999999' 
WAVCIS,ioos:station:WAVCIS:CSI03:3,2016-11-04T11:00:00Z,29.4412,-92.0613,10.0,3.58,102.0,,'11111222,11111222,99999999' 
WAVCIS,ioos:station:WAVCIS:CSI03:3,2016-11-04T12:00:00Z,29.4412,-92.0613,10.0,3.756,100.0,,'11111222,11111222,99999999' 
WAVCIS,ioos:station:WAVCIS:CSI03:3,2016-11-04T13:00:00Z,29.4412,-92.0613,10.0,3.417,90.0,,'11111222,11111222,99999999' 
WAVCIS,ioos:station:WAVCIS:CSI03:3,2016-11-04T14:00:00Z,29.4412,-92.0613,10.0,4.217,91.0,,'11111222,11111222,99999999' 
WAVCIS,ioos:station:WAVCIS:CSI03:3,2016-11-04T15:00:00Z,29.4412,-92.0613,10.0,4.655,97.0,,'11111222,11111222,99999999' 
WAVCIS,ioos:station:WAVCIS:CSI03:3,2016-11-04T16:00:00Z,29.4412,-92.0613,10.0,3.436,94.0,,'11111222,11111222,99999999' 
WAVCIS,ioos:station:WAVCIS:CSI03:3,2016-11-04T17:00:00Z,29.4412,-92.0613,10.0,3.451,101.0,,'11111222,11111222,99999999' 
WAVCIS,ioos:station:WAVCIS:CSI03:3,2016-11-04T18:00:00Z,29.4412,-92.0613,10.0,2.902,99.0,,'11111222,11111222,99999999' 
WAVCIS,ioos:station:WAVCIS:CSI03:3,2016-11-04T19:00:00Z,29.4412,-92.0613,10.0,2.196,98.0,,'11111222,11111222,99999999' 
WAVCIS,ioos:station:WAVCIS:CSI03:3,2016-11-04T20:00:00Z,29.4412,-92.0613,10.0,1.154,98.0,,'11111222,11111222,99999999' 
WAVCIS,ioos:station:WAVCIS:CSI03:3,2016-11-04T21:00:00Z,29.4412,-92.0613,10.0,0.84,98.0,,'11111222,11111222,99999999' 
WAVCIS,ioos:station:WAVCIS:CSI03:3,2016-11-04T22:00:00Z,29.4412,-92.0613,10.0,1.227,100.0,,'11111222,11111222,99999999' 
WAVCIS,ioos:station:WAVCIS:CSI03:3,2016-11-04T23:00:00Z,29.4412,-92.0613,10.0,0.34,289.0,,'11111222,11111222,99999999' 
WAVCIS,ioos:station:WAVCIS:CSI03:3,2016-11-05T00:00:00Z,29.4412,-92.0613,10.0,3.704,7.0,,'11111222,11111222,99999999' 
WAVCIS,ioos:station:WAVCIS:CSI03:3,2016-11-05T01:00:00Z,29.4412,-92.0613,10.0,3.883,14.0,,'11111222,11111222,99999999' 
WAVCIS,ioos:station:WAVCIS:CSI03:3,2016-11-05T02:00:00Z,29.4412,-92.0613,10.0,2.622,17.0,,'11111222,11111222,99999999' 
WAVCIS,ioos:station:WAVCIS:CSI03:3,2016-11-05T03:00:00Z,29.4412,-92.0613,10.0,5.548,69.0,,'11111222,11111222,99999999' 
WAVCIS,ioos:station:WAVCIS:CSI03:3,2016-11-05T04:00:00Z,29.4412,-92.0613,10.0,4.805,93.0,,'11111222,11111222,99999999' 
WAVCIS,ioos:station:WAVCIS:CSI03:3,2016-11-05T05:00:00Z,29.4412,-92.0613,10.0,5.169,127.0,,'11111222,11111222,99999999' 
WAVCIS,ioos:station:WAVCIS:CSI03:3,2016-11-05T06:00:00Z,29.4412,-92.0613,10.0,7.71,136.0,,'11111222,11111222,99999999' 
WAVCIS,ioos:station:WAVCIS:CSI03:3,2016-11-05T07:00:00Z,29.4412,-92.0613,10.0,7.76,138.0,,'11111222,11111222,99999999' 
WAVCIS,ioos:station:WAVCIS:CSI03:3,2016-11-05T08:00:00Z,29.4412,-92.0613,10.0,7.24,144.0,,'11111222,11111222,99999999' 
WAVCIS,ioos:station:WAVCIS:CSI03:3,2016-11-05T09:00:00Z,29.4412,-92.0613,10.0,8.59,151.0,,'11111222,11111222,99999999' 
WAVCIS,ioos:station:WAVCIS:CSI03:3,2016-11-05T10:00:00Z,29.4412,-92.0613,10.0,8.15,150.0,,'11111222,11111222,99999999' 
WAVCIS,ioos:station:WAVCIS:CSI03:3,2016-11-05T11:00:00Z,29.4412,-92.0613,10.0,8.41,153.0,,'11111222,11111222,99999999' 
WAVCIS,ioos:station:WAVCIS:CSI03:3,2016-11-05T12:00:00Z,29.4412,-92.0613,10.0,8.26,163.0,,'11111222,11111222,99999999' 
WAVCIS,ioos:station:WAVCIS:CSI03:3,2016-11-05T13:00:00Z,29.4412,-92.0613,10.0,6.6,154.0,,'11111222,11111222,99999999' 
WAVCIS,ioos:station:WAVCIS:CSI03:3,2016-11-05T14:00:00Z,29.4412,-92.0613,10.0,6.742,152.0,,'11111222,11111222,99999999' 
WAVCIS,ioos:station:WAVCIS:CSI03:3,2016-11-05T15:00:00Z,29.4412,-92.0613,10.0,6.984,154.0,,'11111222,11111222,99999999' 
WAVCIS,ioos:station:WAVCIS:CSI03:3,2016-11-05T16:00:00Z,29.4412,-92.0613,10.0,5.868,167.0,,'11111222,11111222,99999999' 
WAVCIS,ioos:station:WAVCIS:CSI03:3,2016-11-05T17:00:00Z,29.4412,-92.0613,10.0,4.181,155.0,,'11111222,11111222,99999999' 
WAVCIS,ioos:station:WAVCIS:CSI03:3,2016-11-05T18:00:00Z,29.4412,-92.0613,10.0,4.129,176.0,,'11111222,11111222,99999999' 
WAVCIS,ioos:station:WAVCIS:CSI03:3,2016-11-05T19:00:00Z,29.4412,-92.0613,10.0,3.466,195.0,,'11111222,11111222,99999999' 
WAVCIS,ioos:station:WAVCIS:CSI03:3,2016-11-05T20:00:00Z,29.4412,-92.0613,10.0,3.384,224.0,,'11111222,11111222,99999999' 
WAVCIS,ioos:station:WAVCIS:CSI03:3,2016-11-05T21:00:00Z,29.4412,-92.0613,10.0,3.778,232.0,,'11111222,11111222,99999999' 
WAVCIS,ioos:station:WAVCIS:CSI03:3,2016-11-05T22:00:00Z,29.4412,-92.0613,10.0,2.908,235.0,,'11111222,11111222,99999999' 
WAVCIS,ioos:station:WAVCIS:CSI03:3,2016-11-05T23:00:00Z,29.4412,-92.0613,10.0,2.357,225.0,,'11111222,11111222,99999999' 
WAVCIS,ioos:station:WAVCIS:CSI03:3,2016-11-06T00:00:00Z,29.4412,-92.0613,10.0,1.425,225.0,,'11111222,11111222,99999999' 
WAVCIS,ioos:station:WAVCIS:CSI03:3,2016-11-06T01:00:00Z,29.4412,-92.0613,10.0,2.612,159.0,,'11111222,11111222,99999999' 
WAVCIS,ioos:station:WAVCIS:CSI03:3,2016-11-06T02:00:00Z,29.4412,-92.0613,10.0,6.864,155.0,,'11111222,11111222,99999999' 
WAVCIS,ioos:station:WAVCIS:CSI03:3,2016-11-06T03:00:00Z,29.4412,-92.0613,10.0,6.496,178.0,,'11111222,11111222,99999999' 
WAVCIS,ioos:station:WAVCIS:CSI03:3,2016-11-06T04:00:00Z,29.4412,-92.0613,10.0,4.619,165.0,,'11111222,11111222,99999999' 
WAVCIS,ioos:station:WAVCIS:CSI03:3,2016-11-06T05:00:00Z,29.4412,-92.0613,10.0,5.549,154.0,,'11111222,11111222,99999999' 
WAVCIS,ioos:station:WAVCIS:CSI03:3,2016-11-06T06:00:00Z,29.4412,-92.0613,10.0,6.12,162.0,,'11111222,11111222,99999999' 
WAVCIS,ioos:station:WAVCIS:CSI03:3,2016-11-06T07:00:00Z,29.4412,-92.0613,10.0,5.554,169.0,,'11111222,11111222,99999999' 
WAVCIS,ioos:station:WAVCIS:CSI03:3,2016-11-06T08:00:00Z,29.4412,-92.0613,10.0,5.706,170.0,,'11111222,11111222,99999999' 
WAVCIS,ioos:station:WAVCIS:CSI03:3,2016-11-06T09:00:00Z,29.4412,-92.0613,10.0,5.911,182.0,,'11111222,11111222,99999999' 
WAVCIS,ioos:station:WAVCIS:CSI03:3,2016-11-06T10:00:00Z,29.4412,-92.0613,10.0,7.11,198.0,,'11111222,11111222,99999999' 
WAVCIS,ioos:station:WAVCIS:CSI03:3,2016-11-06T11:00:00Z,29.4412,-92.0613,10.0,5.412,191.0,,'11111222,11111222,99999999' 
WAVCIS,ioos:station:WAVCIS:CSI03:3,2016-11-06T12:00:00Z,29.4412,-92.0613,10.0,5.736,177.0,,'11111222,11111222,99999999' 
WAVCIS,ioos:station:WAVCIS:CSI03:3,2016-11-06T13:00:00Z,29.4412,-92.0613,10.0,6.45,182.0,,'11111222,11111222,99999999' 
WAVCIS,ioos:station:WAVCIS:CSI03:3,2016-11-06T14:00:00Z,29.4412,-92.0613,10.0,6.966,186.0,,'11111222,11111222,99999999' 
WAVCIS,ioos:station:WAVCIS:CSI03:3,2016-11-06T15:00:00Z,29.4412,-92.0613,10.0,7.14,192.0,,'11111222,11111222,99999999' 
WAVCIS,ioos:station:WAVCIS:CSI03:3,2016-11-06T16:00:00Z,29.4412,-92.0613,10.0,8.23,197.0,,'11111222,11111222,99999999' 
WAVCIS,ioos:station:WAVCIS:CSI03:3,2016-11-06T17:00:00Z,29.4412,-92.0613,10.0,8.5,202.0,,'11111222,11111222,99999999' 
WAVCIS,ioos:station:WAVCIS:CSI03:3,2016-11-06T18:00:00Z,29.4412,-92.0613,10.0,9.32,216.0,,'11111222,11111222,99999999' 
WAVCIS,ioos:station:WAVCIS:CSI03:3,2016-11-06T19:00:00Z,29.4412,-92.0613,10.0,9.46,218.0,,'11111222,11111222,99999999' 
WAVCIS,ioos:station:WAVCIS:CSI03:3,2016-11-06T20:00:00Z,29.4412,-92.0613,10.0,8.22,218.0,,'11111222,11111222,99999999' 
WAVCIS,ioos:station:WAVCIS:CSI03:3,2016-11-06T21:00:00Z,29.4412,-92.0613,10.0,7.72,215.0,,'11111222,11111222,99999999' 
WAVCIS,ioos:station:WAVCIS:CSI03:3,2016-11-06T22:00:00Z,29.4412,-92.0613,10.0,7.73,208.0,,'11111222,11111222,99999999' 
WAVCIS,ioos:station:WAVCIS:CSI03:3,2016-11-06T23:00:00Z,29.4412,-92.0613,10.0,8.07,208.0,,'11111222,11111222,99999999' 
WAVCIS,ioos:station:WAVCIS:CSI03:3,2016-11-07T00:00:00Z,29.4412,-92.0613,10.0,7.81,208.0,,'11111222,11111222,99999999' 
WAVCIS,ioos:station:WAVCIS:CSI03:3,2016-11-07T01:00:00Z,29.4412,-92.0613,10.0,8.49,202.0,,'11111222,11111222,99999999' 
WAVCIS,ioos:station:WAVCIS:CSI03:3,2016-11-07T02:00:00Z,29.4412,-92.0613,10.0,9.78,187.0,,'11111222,11111222,99999999' 
WAVCIS,ioos:station:WAVCIS:CSI03:3,2016-11-07T03:00:00Z,29.4412,-92.0613,10.0,10.02,191.0,,'11111222,11111222,99999999' 
WAVCIS,ioos:station:WAVCIS:CSI03:3,2016-11-07T04:00:00Z,29.4412,-92.0613,10.0,9.29,192.0,,'11111222,11111222,99999999' 
WAVCIS,ioos:station:WAVCIS:CSI03:3,2016-11-07T05:00:00Z,29.4412,-92.0613,10.0,9.39,189.0,,'11111222,11111222,99999999' 
WAVCIS,ioos:station:WAVCIS:CSI03:3,2016-11-07T06:00:00Z,29.4412,-92.0613,10.0,9.76,187.0,,'11111222,11111222,99999999' 
WAVCIS,ioos:station:WAVCIS:CSI03:3,2016-11-07T07:00:00Z,29.4412,-92.0613,10.0,10.31,191.0,,'11111222,11111222,99999999' 
WAVCIS,ioos:station:WAVCIS:CSI03:3,2016-11-07T08:00:00Z,29.4412,-92.0613,10.0,7.59,178.0,,'11111222,11111222,99999999' 
WAVCIS,ioos:station:WAVCIS:CSI03:3,2016-11-07T09:00:00Z,29.4412,-92.0613,10.0,7.32,167.0,,'11111222,11111222,99999999' 
WAVCIS,ioos:station:WAVCIS:CSI03:3,2016-11-07T10:00:00Z,29.4412,-92.0613,10.0,6.051,158.0,,'11111222,11111222,99999999' 
WAVCIS,ioos:station:WAVCIS:CSI03:3,2016-11-07T11:00:00Z,29.4412,-92.0613,10.0,7.45,164.0,,'11111222,11111222,99999999' 
WAVCIS,ioos:station:WAVCIS:CSI03:3,2016-11-07T12:00:00Z,29.4412,-92.0613,10.0,6.447,162.0,,'11111222,11111222,99999999' 
WAVCIS,ioos:station:WAVCIS:CSI03:3,2016-11-07T13:00:00Z,29.4412,-92.0613,10.0,6.993,172.0,,'11111222,11111222,99999999' 
WAVCIS,ioos:station:WAVCIS:CSI03:3,2016-11-07T14:00:00Z,29.4412,-92.0613,10.0,5.767,169.0,,'11111222,11111222,99999999' 
WAVCIS,ioos:station:WAVCIS:CSI03:3,2016-11-07T15:00:00Z,29.4412,-92.0613,10.0,6.274,166.0,,'11111222,11111222,99999999' 
WAVCIS,ioos:station:WAVCIS:CSI03:3,2016-11-07T16:00:00Z,29.4412,-92.0613,10.0,4.395,145.0,,'11111222,11111222,99999999' 
WAVCIS,ioos:station:WAVCIS:CSI03:3,2016-11-07T17:00:00Z,29.4412,-92.0613,10.0,4.837,119.0,,'11111222,11111222,99999999' 
WAVCIS,ioos:station:WAVCIS:CSI03:3,2016-11-07T18:00:00Z,29.4412,-92.0613,10.0,4.393,121.0,,'11111222,11111222,99999999' 
WAVCIS,ioos:station:WAVCIS:CSI03:3,2016-11-07T19:00:00Z,29.4412,-92.0613,10.0,7.64,137.0,,'11111222,11111222,99999999' 
WAVCIS,ioos:station:WAVCIS:CSI03:3,2016-11-07T20:00:00Z,29.4412,-92.0613,10.0,6.977,144.0,,'11111222,11111222,99999999' 
WAVCIS,ioos:station:WAVCIS:CSI03:3,2016-11-07T21:00:00Z,29.4412,-92.0613,10.0,6.303,152.0,,'11111222,11111222,99999999' 
WAVCIS,ioos:station:WAVCIS:CSI03:3,2016-11-07T22:00:00Z,29.4412,-92.0613,10.0,6.826,142.0,,'11111222,11111222,99999999' 
WAVCIS,ioos:station:WAVCIS:CSI03:3,2016-11-07T23:00:00Z,29.4412,-92.0613,10.0,8.73,152.0,,'11111222,11111222,99999999' 
WAVCIS,ioos:station:WAVCIS:CSI03:3,2016-11-08T00:00:00Z,29.4412,-92.0613,10.0,5.955,166.0,,'11111222,11111222,99999999' 
WAVCIS,ioos:station:WAVCIS:CSI03:3,2016-11-08T01:00:00Z,29.4412,-92.0613,10.0,6.508,157.0,,'11111222,11111222,99999999' 
WAVCIS,ioos:station:WAVCIS:CSI03:3,2016-11-08T02:00:00Z,29.4412,-92.0613,10.0,7.05,167.0,,'11111222,11111222,99999999' 
WAVCIS,ioos:station:WAVCIS:CSI03:3,2016-11-08T03:00:00Z,29.4412,-92.0613,10.0,7.18,153.0,,'11111222,11111222,99999999' 
WAVCIS,ioos:station:WAVCIS:CSI03:3,2016-11-08T04:00:00Z,29.4412,-92.0613,10.0,7.03,151.0,,'11111222,11111222,99999999' 
WAVCIS,ioos:station:WAVCIS:CSI03:3,2016-11-08T05:00:00Z,29.4412,-92.0613,10.0,7.12,155.0,,'11111222,11111222,99999999' 
WAVCIS,ioos:station:WAVCIS:CSI03:3,2016-11-08T06:00:00Z,29.4412,-92.0613,10.0,7.26,158.0,,'11111222,11111222,99999999' 
WAVCIS,ioos:station:WAVCIS:CSI03:3,2016-11-08T07:00:00Z,29.4412,-92.0613,10.0,6.918,175.0,,'11111222,11111222,99999999' 
WAVCIS,ioos:station:WAVCIS:CSI03:3,2016-11-08T08:00:00Z,29.4412,-92.0613,10.0,7.37,184.0,,'11111222,11111222,99999999' 
WAVCIS,ioos:station:WAVCIS:CSI03:3,2016-11-08T09:00:00Z,29.4412,-92.0613,10.0,6.094,187.0,,'11111222,11111222,99999999' 
WAVCIS,ioos:station:WAVCIS:CSI03:3,2016-11-08T10:00:00Z,29.4412,-92.0613,10.0,7.1,182.0,,'11111222,11111222,99999999' 
WAVCIS,ioos:station:WAVCIS:CSI03:3,2016-11-08T11:00:00Z,29.4412,-92.0613,10.0,7.93,182.0,,'11111222,11111222,99999999' 
WAVCIS,ioos:station:WAVCIS:CSI03:3,2016-11-08T12:00:00Z,29.4412,-92.0613,10.0,8.78,186.0,,'11111222,11111222,99999999' 
WAVCIS,ioos:station:WAVCIS:CSI03:3,2016-11-08T13:00:00Z,29.4412,-92.0613,10.0,7.39,186.0,,'11111222,11111222,99999999' 
WAVCIS,ioos:station:WAVCIS:CSI03:3,2016-11-08T14:00:00Z,29.4412,-92.0613,10.0,8.55,199.0,,'11111222,11111222,99999999' 
WAVCIS,ioos:station:WAVCIS:CSI03:3,2016-11-08T15:00:00Z,29.4412,-92.0613,10.0,6.558,186.0,,'11111222,11111222,99999999' 
WAVCIS,ioos:station:WAVCIS:CSI03:3,2016-11-08T16:00:00Z,29.4412,-92.0613,10.0,6.306,182.0,,'11111222,11111222,99999999' 
WAVCIS,ioos:station:WAVCIS:CSI03:3,2016-11-08T17:00:00Z,29.4412,-92.0613,10.0,5.702,169.0,,'11111222,11111222,99999999' 
WAVCIS,ioos:station:WAVCIS:CSI03:3,2016-11-08T18:00:00Z,29.4412,-92.0613,10.0,6.01,171.0,,'11111222,11111222,99999999' 
WAVCIS,ioos:station:WAVCIS:CSI03:3,2016-11-08T19:00:00Z,29.4412,-92.0613,10.0,5.575,162.0,,'11111222,11111222,99999999' 
WAVCIS,ioos:station:WAVCIS:CSI03:3,2016-11-08T20:00:00Z,29.4412,-92.0613,10.0,4.246,142.0,,'11111222,11111222,99999999' 
WAVCIS,ioos:station:WAVCIS:CSI03:3,2016-11-08T21:00:00Z,29.4412,-92.0613,10.0,5.107,140.0,,'11111222,11111222,99999999' 
WAVCIS,ioos:station:WAVCIS:CSI03:3,2016-11-08T22:00:00Z,29.4412,-92.0613,10.0,5.31,137.0,,'11111222,11111222,99999999' 
WAVCIS,ioos:station:WAVCIS:CSI03:3,2016-11-08T23:00:00Z,29.4412,-92.0613,10.0,6.69,138.0,,'11111222,11111222,99999999' 
WAVCIS,ioos:station:WAVCIS:CSI03:3,2016-11-09T00:00:00Z,29.4412,-92.0613,10.0,7.16,136.0,,'11111222,11111222,99999999' 
WAVCIS,ioos:station:WAVCIS:CSI03:3,2016-11-09T01:00:00Z,29.4412,-92.0613,10.0,7.15,135.0,,'11111222,11111222,99999999' 
WAVCIS,ioos:station:WAVCIS:CSI03:3,2016-11-09T02:00:00Z,29.4412,-92.0613,10.0,7.1,135.0,,'11111222,11111222,99999999' 
WAVCIS,ioos:station:WAVCIS:CSI03:3,2016-11-09T03:00:00Z,29.4412,-92.0613,10.0,5.903,133.0,,'11111222,11111222,99999999' 
WAVCIS,ioos:station:WAVCIS:CSI03:3,2016-11-09T04:00:00Z,29.4412,-92.0613,10.0,5.748,133.0,,'11111222,11111222,99999999' 
WAVCIS,ioos:station:WAVCIS:CSI03:3,2016-11-09T05:00:00Z,29.4412,-92.0613,10.0,5.524,131.0,,'11111222,11111222,99999999' 